Other Surface Observations
Issued by NWS Upton, NY

Current Version | Previous Version | Text Only | Print | Product List | Glossary Off
Versions: 1 2 3 4 5 6 7 8 9 10 11 12 13 14 15 16 17 18 19 20 21 22 23 24 25 26 27 28 29 30 31 32 33 34 35 36 37 38 39 40 41 42 43 44 45 46 47 48 49 50

000
SXUS51 KOKX 181257
OSOOKX
New York City Metropolitan Area Weather Roundup
National Weather Service New York NY
900 AM EDT THU OCT 18 2018

CITY           SKY/WX    TMP DP  RH WIND       PRES   REMARKS
Central Park   FAIR      42  24  49 MISG      30.36R
LaGuardia Arpt FAIR      45  28  51 NW16G23   30.34R
Kennedy Intl   FAIR      44  25  47 NW21G28   30.34R
Newark Liberty FAIR      44  22  41 NW17G26   30.35R
Teterboro Arpt FAIR      43  26  51 NW15G21   30.34R
Bronx Lehman C   N/A     41  27  56 NW8         N/A
Queens College   N/A     43  25  49 NW15        N/A
Breezy Point     N/A     43 N/A N/A NW15G24     N/A
Brooklyn Coll    N/A     43  25  49 NW15        N/A
Staten Island    N/A     43  23  45 NW15G26     N/A

>>>>>>>>>>>>>>>>>>>>>>>>>>>>>>>>> KEY <<<<<<<<<<<<<<<<<<<<<<<<<<<<<<<
> SKY/WX - Sky Condition/Present    : R : WCI - Wind Chill Index    <
>          Weather                  : E : VSB - Visibility in Miles <
> TMP    - Temperature in Deg F     : M : HX  - Heat Index          <
> DP     - Dew Point Temperature    : A : TC  - Temperature in      <
> RH     - Relative Humidity        : R :       Celsius             <
> WIND   - Direction/Speed (mph)    : K : VRB - Variable Wind Dir   <
> PRES   - Pressure (in Hg)         : S :                           <
>>>>>>>>>>>>>>>>>>>>>>>>>>>>>>>>> KEY <<<<<<<<<<<<<<<<<<<<<<<<<<<<<<<



USA.gov is the U.S. government's official web portal to all federal, state and local government web resources and services.